This is the latest recevied weather packets stored in our database for station/object N9EA. If no packets are shown the sender has not sent any weather packets the latest 10 day(s).
| Time | Temp. | Humidity | Pressure | Rain* | Wind** | Luminosity | Snow |
|---|---|---|---|---|---|---|---|
| 1777667342 | 12.78° C | 50% | 1016.4 hPa | 0 mm | - | 215 W/m² | - |
| 1777667038 | 12.78° C | 50% | 1016.4 hPa | 0 mm | - | 191 W/m² | - |
| 1777666735 | 13.33° C | 49% | 1016.7 hPa | 0 mm | - | 227 W/m² | - |
| 1777666432 | 13.89° C | 46% | 1016.4 hPa | 0 mm | - | 399 W/m² | - |
| 1777666128 | 13.89° C | 44% | 1016.4 hPa | 0 mm | - | 569 W/m² | - |
| 1777665825 | 14.44° C | 44% | 1016.7 hPa | 0 mm | - | 558 W/m² | - |
| 1777665524 | 13.89° C | 46% | 1016.8 hPa | 0 mm | - | 588 W/m² | - |
| 1777665219 | 12.78° C | 46% | 1016.4 hPa | 0 mm | - | 328 W/m² | - |
| 1777664915 | 12.78° C | 47% | 1016.8 hPa | 0 mm | - | 320 W/m² | - |
| 1777664611 | 12.78° C | 49% | 1016.7 hPa | 0 mm | - | 316 W/m² | - |
| 1777664308 | 13.33° C | 49% | 1016.4 hPa | 0 mm | - | 339 W/m² | - |
| 1777664006 | 12.78° C | 47% | 1016.9 hPa | 0 mm | - | 346 W/m² | - |
| 1777663704 | 12.78° C | 49% | 1016.9 hPa | 0 mm | - | 337 W/m² | - |
| 1777663401 | 12.78° C | 49% | 1016.7 hPa | 0 mm | - | 302 W/m² | - |
| 1777663097 | 12.78° C | 48% | 1016.9 hPa | 0 mm | - | 303 W/m² | - |
| 1777662795 | 12.78° C | 49% | 1016.5 hPa | 0 mm | - | 281 W/m² | - |
| 1777662491 | 12.22° C | 48% | 1017 hPa | 0 mm | - | 904 W/m² | - |
| 1777662187 | 12.78° C | 49% | 1016.8 hPa | 0 mm | - | 395 W/m² | - |
| 1777661883 | 12.22° C | 51% | 1016.5 hPa | 0 mm | - | 307 W/m² | - |
| 1777661579 | 11.67° C | 50% | 1016.8 hPa | 0 mm | - | 900 W/m² | - |
| 1777661275 | 12.22° C | 49% | 1016.7 hPa | 0 mm | - | 297 W/m² | - |
| 1777660970 | 12.22° C | 49% | 1016.8 hPa | 0 mm | - | 774 W/m² | - |
| 1777660667 | 12.22° C | 51% | 1016.5 hPa | 0 mm | - | 407 W/m² | - |
| 1777660364 | 11.67° C | 49% | 1016.5 hPa | 0 mm | - | 261 W/m² | - |
| 1777660060 | 12.22° C | 50% | 1016.8 hPa | 0 mm | - | 291 W/m² | - |
* Rain latest hour (hover to see other rain measurements)
** Current wind speed in m/s (hover to see current wind gust speed)